,,PA_Meas_PMT16A,,PR_Meas_QMR101_102,,RH_Meas_QMH101,,SR_Meas_QMS101,,TA_Meas_QMH101,,GenWind,,GenWind,
time,status,PA,status,PR,status,RH,status,SR,status,TA,status,DirAvg,status,SpdAvg,
2015-03-17, 07:18:04,INVALID - VALUE NOT AVAILABLE,0,INVALID - VALUE NOT AVAILABLE,0,INVALID - VALUE NOT AVAILABLE,0,INVALID - VALUE NOT AVAILABLE,0,INVALID - VALUE NOT AVAILABLE,0,INVALID,360,INVALID,0,
2015-03-17, 07:22:04,VALID,919.158,VALID,0,VALID,98.2811,VALID,86.3827,VALID,20.2879,VALID,119,VALID,0,
2015-03-17, 07:23:04,VALID,919.162,VALID,0,VALID,98.3192,VALID,90.1431,VALID,20.2863,VALID,119,VALID,0,
2015-03-17, 07:24:04,VALID,919.192,VALID,0,VALID,98.2887,VALID,67.0433,VALID,20.3659,VALID,119,VALID,0,
2015-03-17, 07:25:04,VALID,919.232,VALID,0,VALID,98.3116,VALID,61.134,VALID,20.3464,VALID,120,VALID,0,
2015-03-17, 07:26:04,VALID,919.235,VALID,0,VALID,98.3192,VALID,60.0596,VALID,20.3659,VALID,120,VALID,0,
2015-03-17, 07:27:04,VALID,919.266,VALID,0,VALID,98.3116,VALID,61.9935,VALID,20.3448,VALID,130,VALID,0,
2015-03-17, 07:28:04,VALID,919.272,VALID,0,VALID,98.3039,VALID,62.2084,VALID,20.3269,VALID,135,VALID,0,
2015-03-17, 07:29:04,VALID,919.258,VALID,0,VALID,98.2811,VALID,64.3572,VALID,20.3448,VALID,134,VALID,0,
2015-03-17, 07:30:04,VALID,919.253,VALID,0,VALID,98.2735,VALID,95.7301,VALID,20.3854,VALID,134,VALID,0,
2015-03-17, 07:31:04,VALID,919.251,VALID,0,VALID,98.243,VALID,112.276,VALID,20.3854,VALID,142,VALID,0,
2015-03-17, 07:32:04,VALID,919.267,VALID,0,VALID,98.2125,VALID,124.632,VALID,20.4228,VALID,188,VALID,0,
2015-03-17, 07:33:04,VALID,919.288,VALID,0,VALID,98.1896,VALID,130.863,VALID,20.5204,VALID,187,VALID,0,
2015-03-17, 07:34:04,VALID,919.328,VALID,0,VALID,98.1743,VALID,96.2673,VALID,20.5804,VALID,162,VALID,0,
2015-03-17, 07:35:04,VALID,919.355,VALID,0,VALID,98.1743,VALID,130.111,VALID,20.5789,VALID,172,VALID,0,
2015-03-17, 07:36:04,VALID,919.353,VALID,0,VALID,98.1439,VALID,144.079,VALID,20.6179,VALID,166,VALID,0,
2015-03-17, 07:37:04,VALID,919.322,VALID,0,VALID,98.121,VALID,153.426,VALID,20.6975,VALID,182,VALID,0,
2015-03-17, 07:38:04,VALID,919.344,VALID,0,VALID,98.0524,VALID,160.195,VALID,20.7934,VALID,169,VALID,0,
2015-03-17, 07:39:04,VALID,919.35,VALID,0,VALID,98.0066,VALID,157.509,VALID,20.8535,VALID,194,VALID,0,
2015-03-17, 07:40:04,VALID,919.36,VALID,0,VALID,97.9533,VALID,137.847,VALID,20.93,VALID,186,VALID,0,
2015-03-17, 07:41:04,VALID,919.368,VALID,0,VALID,97.8999,VALID,133.012,VALID,20.969,VALID,182,VALID,0.0234375,
2015-03-17, 07:42:04,VALID,919.369,VALID,0,VALID,97.7474,VALID,150.095,VALID,21.008,VALID,191,VALID,1.06758,
2015-03-17, 07:43:04,VALID,919.408,VALID,0,VALID,97.5416,VALID,157.509,VALID,21.0275,VALID,184,VALID,1.31758,
2015-03-17, 07:44:04,VALID,919.449,VALID,0,VALID,97.3358,VALID,148.484,VALID,21.047,VALID,198,VALID,0.738672,
2015-03-17, 07:45:04,VALID,919.456,VALID,0,VALID,97.1147,VALID,143.434,VALID,21.047,VALID,170,VALID,1.01602,
2015-03-17, 07:46:04,VALID,919.47,VALID,0,VALID,96.9165,VALID,156.112,VALID,21.1055,VALID,188,VALID,1.01914,
2015-03-17, 07:47:04,VALID,919.473,VALID,0,VALID,96.703,VALID,173.303,VALID,21.125,VALID,171,VALID,1.1043,
2015-03-17, 07:48:04,VALID,919.518,VALID,0,VALID,96.5811,VALID,148.054,VALID,21.1836,VALID,178,VALID,0,
2015-03-17, 07:49:04,VALID,919.534,VALID,0,VALID,96.3905,VALID,161.699,VALID,21.164,VALID,161,VALID,0.396875,
2015-03-17, 07:50:04,VALID,919.53,VALID,0,VALID,95.9483,VALID,246.577,VALID,21.1266,VALID,157,VALID,0,
2015-03-17, 07:51:04,VALID,919.533,VALID,0,VALID,95.9026,VALID,198.659,VALID,21.1461,VALID,165,VALID,0,
2015-03-17, 07:52:04,VALID,919.563,VALID,0,VALID,95.9636,VALID,215.527,VALID,21.2242,VALID,164,VALID,0,
2015-03-17, 07:53:04,VALID,919.572,VALID,0,VALID,95.9788,VALID,202.204,VALID,21.2811,VALID,157,VALID,0,
2015-03-17, 07:54:04,VALID,919.576,VALID,0,VALID,95.9559,VALID,182.972,VALID,21.3786,VALID,165,VALID,0,
2015-03-17, 07:55:04,VALID,919.584,VALID,0,VALID,95.4299,VALID,218.535,VALID,21.4388,VALID,171,VALID,0,
2015-03-17, 07:56:04,VALID,919.595,VALID,0,VALID,95.0411,VALID,193.931,VALID,21.4957,VALID,193,VALID,0,
2015-03-17, 07:57:04,VALID,919.57,VALID,0,VALID,94.8505,VALID,148.484,VALID,21.5932,VALID,171,VALID,0,
2015-03-17, 07:58:04,VALID,919.574,VALID,0,VALID,94.5227,VALID,149.451,VALID,21.6713,VALID,182,VALID,0,
2015-03-17, 07:59:04,VALID,919.612,VALID,0,VALID,93.4707,VALID,143.971,VALID,21.6128,VALID,164,VALID,0,
2015-03-17, 08:00:04,VALID,919.627,VALID,0,VALID,93.5241,VALID,232.825,VALID,21.6729,VALID,189,VALID,0,
2015-03-17, 08:01:04,VALID,919.683,VALID,0,VALID,93.5469,VALID,236.8,VALID,21.7298,VALID,186,VALID,0,
2015-03-17, 08:02:04,VALID,919.659,VALID,0,VALID,93.4097,VALID,195.973,VALID,21.8079,VALID,195,VALID,0,
2015-03-17, 08:03:04,VALID,919.686,VALID,0,VALID,92.3424,VALID,198.336,VALID,21.8681,VALID,190,VALID,0,
2015-03-17, 08:04:04,VALID,919.723,VALID,0,VALID,91.946,VALID,152.459,VALID,21.9054,VALID,186,VALID,0,
2015-03-17, 08:05:04,VALID,919.735,VALID,0,VALID,90.8025,VALID,121.731,VALID,21.9071,VALID,157,VALID,0.893359,
2015-03-17, 08:06:04,VALID,919.759,VALID,0,VALID,90.9245,VALID,123.45,VALID,21.8876,VALID,151,VALID,1.07617,
2015-03-17, 08:07:04,VALID,919.811,VALID,0,VALID,92.1442,VALID,187.7,VALID,21.829,VALID,138,VALID,0.512891,
2015-03-17, 08:08:04,VALID,919.839,VALID,0,VALID,93.1963,VALID,244.966,VALID,21.8681,VALID,139,VALID,0,
2015-03-17, 08:09:04,VALID,919.852,VALID,0,VALID,91.8698,VALID,280.636,VALID,21.8681,VALID,128,VALID,0,
2015-03-17, 08:10:04,VALID,919.889,VALID,0,VALID,91.8317,VALID,275.157,VALID,21.8859,VALID,179,VALID,0,
2015-03-17, 08:11:04,VALID,919.903,VALID,0,VALID,91.7859,VALID,271.074,VALID,21.9656,VALID,156,VALID,0,
2015-03-17, 08:12:04,VALID,919.909,VALID,0,VALID,90.4747,VALID,263.983,VALID,22.1005,VALID,145,VALID,0,
2015-03-17, 08:13:04,VALID,919.964,VALID,0,VALID,89.3846,VALID,253.454,VALID,22.2762,VALID,145,VALID,0,
2015-03-17, 08:14:04,VALID,919.971,VALID,0,VALID,88.0733,VALID,250.016,VALID,22.4323,VALID,146,VALID,0,
2015-03-17, 08:15:04,VALID,920.009,VALID,0,VALID,87.715,VALID,299.868,VALID,22.5299,VALID,146,VALID,0,
2015-03-17, 08:16:04,VALID,920.031,VALID,0,VALID,85.8625,VALID,171.261,VALID,22.5299,VALID,150,VALID,0,
2015-03-17, 08:17:04,VALID,920.041,VALID,0,VALID,86.0684,VALID,167.501,VALID,22.4908,VALID,151,VALID,0,
2015-03-17, 08:18:04,VALID,920.062,VALID,0,VALID,86.4953,VALID,159.872,VALID,22.4908,VALID,161,VALID,0,
2015-03-17, 08:19:04,VALID,920.074,VALID,0,VALID,86.6401,VALID,152.459,VALID,22.4696,VALID,165,VALID,0,
2015-03-17, 08:20:04,VALID,920.082,VALID,0,VALID,86.9832,VALID,161.377,VALID,22.4306,VALID,174,VALID,0,
2015-03-17, 08:21:04,VALID,920.068,VALID,0,VALID,87.3186,VALID,229.709,VALID,22.4518,VALID,174,VALID,0,
2015-03-17, 08:22:04,VALID,920.066,VALID,0,VALID,87.2576,VALID,236.8,VALID,22.4518,VALID,156,VALID,0,
2015-03-17, 08:23:04,VALID,920.026,VALID,0,VALID,87.0061,VALID,276.124,VALID,22.4713,VALID,153,VALID,0,
2015-03-17, 08:24:04,VALID,920.044,VALID,0,VALID,86.7545,VALID,229.065,VALID,22.5494,VALID,149,VALID,0,
2015-03-17, 08:25:04,VALID,920.023,VALID,0,VALID,86.5105,VALID,213.915,VALID,22.4908,VALID,148,VALID,0,
2015-03-17, 08:26:04,VALID,919.988,VALID,0,VALID,86.8688,VALID,223.907,VALID,22.3542,VALID,148,VALID,0,
2015-03-17, 08:27:04,VALID,919.99,VALID,0,VALID,87.6845,VALID,319.208,VALID,22.333,VALID,147,VALID,0,
2015-03-17, 08:28:04,VALID,919.977,VALID,0,VALID,88.0886,VALID,319.315,VALID,22.4323,VALID,147,VALID,0,
2015-03-17, 08:29:04,VALID,919.986,VALID,0,VALID,87.9818,VALID,325.332,VALID,22.5281,VALID,149,VALID,0,
2015-03-17, 08:30:04,VALID,919.967,VALID,0,VALID,87.6388,VALID,216.816,VALID,22.5281,VALID,124,VALID,0,
2015-03-17, 08:31:04,VALID,919.991,VALID,0,VALID,87.837,VALID,262.049,VALID,22.4908,VALID,150,VALID,0,
2015-03-17, 08:32:04,VALID,919.957,VALID,0,VALID,88.4011,VALID,356.382,VALID,22.4111,VALID,139,VALID,0,
2015-03-17, 08:33:04,VALID,919.975,VALID,0,VALID,88.6527,VALID,219.502,VALID,22.4501,VALID,158,VALID,0,
2015-03-17, 08:34:04,VALID,919.947,VALID,0,VALID,88.1114,VALID,220.254,VALID,22.4323,VALID,155,VALID,0,
2015-03-17, 08:35:04,VALID,919.937,VALID,0,VALID,88.1877,VALID,175.881,VALID,22.4111,VALID,150,VALID,0,
2015-03-17, 08:36:04,VALID,919.945,VALID,0,VALID,88.8052,VALID,302.447,VALID,22.3933,VALID,137,VALID,0,
2015-03-17, 08:37:04,VALID,919.956,VALID,0,VALID,88.889,VALID,357.242,VALID,22.4908,VALID,90,VALID,0,
2015-03-17, 08:38:04,VALID,919.987,VALID,0,VALID,88.1419,VALID,373.465,VALID,22.5884,VALID,123,VALID,0,
2015-03-17, 08:39:04,VALID,919.986,VALID,0,VALID,87.593,VALID,363.366,VALID,22.725,VALID,123,VALID,0,
2015-03-17, 08:40:04,VALID,919.993,VALID,0,VALID,87.6693,VALID,273.653,VALID,22.8616,VALID,136,VALID,0,
2015-03-17, 08:41:04,VALID,919.976,VALID,0,VALID,86.2666,VALID,372.821,VALID,22.9202,VALID,167,VALID,0,
2015-03-17, 08:42:04,VALID,919.986,VALID,0,VALID,86.3809,VALID,241.42,VALID,22.9397,VALID,156,VALID,0,
2015-03-17, 08:43:04,VALID,919.968,VALID,0,VALID,86.3352,VALID,269.462,VALID,22.9983,VALID,166,VALID,0,
2015-03-17, 08:44:04,VALID,919.968,VALID,0,VALID,86.0531,VALID,367.879,VALID,23.0373,VALID,141,VALID,0,
2015-03-17, 08:45:04,VALID,919.97,VALID,0,VALID,84.437,VALID,339.192,VALID,22.977,VALID,167,VALID,0,
2015-03-17, 08:46:04,VALID,919.953,VALID,0,VALID,85.3289,VALID,392.59,VALID,22.9007,VALID,170,VALID,0,
2015-03-17, 08:47:04,VALID,919.958,VALID,0,VALID,85.6186,VALID,385.177,VALID,22.9592,VALID,162,VALID,0,
2015-03-17, 08:48:04,VALID,919.963,VALID,0,VALID,85.5271,VALID,371.746,VALID,23.0959,VALID,156,VALID,0,
2015-03-17, 08:49:04,VALID,919.984,VALID,0,VALID,84.9935,VALID,403.871,VALID,23.1935,VALID,140,VALID,0,
2015-03-17, 08:50:04,VALID,919.988,VALID,0,VALID,84.6885,VALID,413.219,VALID,23.1527,VALID,168,VALID,1.11133,
2015-03-17, 08:51:04,VALID,919.975,VALID,0,VALID,84.5818,VALID,415.26,VALID,23.1917,VALID,150,VALID,1.0332,
2015-03-17, 08:52:04,VALID,919.978,VALID,0,VALID,85.611,VALID,413.219,VALID,23.1527,VALID,130,VALID,0.928125,
2015-03-17, 08:53:04,VALID,919.941,VALID,0,VALID,85.0316,VALID,423.855,VALID,23.1917,VALID,147,VALID,0.808594,
2015-03-17, 08:54:04,VALID,919.974,VALID,0,VALID,84.6657,VALID,347.465,VALID,23.2112,VALID,146,VALID,1.18906,
2015-03-17, 08:55:04,VALID,919.917,VALID,0,VALID,84.3074,VALID,406.987,VALID,23.1331,VALID,144,VALID,1.46602,
2015-03-17, 08:56:04,VALID,919.932,VALID,0,VALID,85.672,VALID,429.979,VALID,23.1722,VALID,171,VALID,0.433984,
2015-03-17, 08:57:04,VALID,919.943,VALID,0,VALID,85.3136,VALID,439.112,VALID,23.4259,VALID,169,VALID,0.642187,
2015-03-17, 08:58:04,VALID,919.877,VALID,0,VALID,84.3531,VALID,433.203,VALID,23.6602,VALID,170,VALID,0.4,
2015-03-17, 08:59:04,VALID,919.898,VALID,0,VALID,82.5768,VALID,439.542,VALID,23.8163,VALID,172,VALID,1.29766,
2015-03-17, 09:00:04,VALID,919.906,VALID,0,VALID,81.906,VALID,441.261,VALID,23.6193,VALID,169,VALID,1.36367,
2015-03-17, 09:01:04,VALID,919.889,VALID,0,VALID,83.5755,VALID,446.096,VALID,23.4632,VALID,185,VALID,0.715625,
2015-03-17, 09:02:04,VALID,919.888,VALID,0,VALID,83.5069,VALID,440.724,VALID,23.5803,VALID,158,VALID,0,
2015-03-17, 09:03:04,VALID,919.909,VALID,0,VALID,82.7369,VALID,455.98,VALID,23.795,VALID,158,VALID,0,
2015-03-17, 09:04:04,VALID,919.884,VALID,0,VALID,81.9593,VALID,462.104,VALID,24.0097,VALID,158,VALID,0,
2015-03-17, 09:05:04,VALID,919.875,VALID,0,VALID,80.1526,VALID,459.311,VALID,24.1854,VALID,176,VALID,0,
2015-03-17, 09:06:04,VALID,919.89,VALID,0,VALID,80.671,VALID,450.931,VALID,24.2245,VALID,154,VALID,0,
2015-03-17, 09:07:04,VALID,919.898,VALID,0,VALID,79.9544,VALID,437.178,VALID,24.3416,VALID,142,VALID,0,
2015-03-17, 09:08:04,VALID,919.903,VALID,0,VALID,78.8261,VALID,320.282,VALID,24.5368,VALID,140,VALID,0,
2015-03-17, 09:09:04,VALID,919.906,VALID,0,VALID,77.5683,VALID,493.692,VALID,24.5387,VALID,140,VALID,0,
2015-03-17, 09:10:04,VALID,919.946,VALID,0,VALID,78.7575,VALID,491.866,VALID,24.734,VALID,140,VALID,0,
2015-03-17, 09:11:04,VALID,919.943,VALID,0,VALID,77.1718,VALID,489.609,VALID,25.1245,VALID,141,VALID,0,
2015-03-17, 09:12:04,VALID,919.958,VALID,0,VALID,76.3485,VALID,471.129,VALID,25.3003,VALID,141,VALID,0,
2015-03-17, 09:13:04,VALID,919.943,VALID,0,VALID,75.3422,VALID,462.427,VALID,25.5542,VALID,141,VALID,0,
2015-03-17, 09:14:04,VALID,919.97,VALID,0,VALID,73.2458,VALID,485.527,VALID,25.7691,VALID,179,VALID,0,
2015-03-17, 09:15:04,VALID,919.998,VALID,0,VALID,71.8126,VALID,517.866,VALID,25.7886,VALID,191,VALID,0,
2015-03-17, 09:16:04,VALID,920.014,VALID,0,VALID,71.561,VALID,487.461,VALID,25.6109,VALID,246,VALID,0,
2015-03-17, 09:17:04,VALID,920.028,VALID,0,VALID,71.3171,VALID,426.756,VALID,25.2808,VALID,246,VALID,0,
2015-03-17, 09:18:04,VALID,920.003,VALID,0,VALID,72.918,VALID,487.998,VALID,25.1441,VALID,246,VALID,0,
2015-03-17, 09:19:04,VALID,920.025,VALID,0,VALID,73.1619,VALID,514.965,VALID,25.2222,VALID,238,VALID,0,
2015-03-17, 09:20:04,VALID,919.995,VALID,0,VALID,73.1695,VALID,505.188,VALID,25.4156,VALID,210,VALID,0,
2015-03-17, 09:21:04,VALID,919.972,VALID,0,VALID,72.6893,VALID,517.974,VALID,25.4741,VALID,174,VALID,0,
2015-03-17, 09:22:04,VALID,919.973,VALID,0,VALID,73.1314,VALID,449.964,VALID,25.4741,VALID,171,VALID,0,
2015-03-17, 09:23:04,VALID,919.955,VALID,0,VALID,71.4543,VALID,234.007,VALID,25.4937,VALID,250,VALID,0,
2015-03-17, 09:24:04,VALID,919.96,VALID,0,VALID,72.4758,VALID,248.297,VALID,25.2984,VALID,221,VALID,0,
2015-03-17, 09:25:04,VALID,919.964,VALID,0,VALID,73.261,VALID,440.401,VALID,25.2203,VALID,213,VALID,0,
2015-03-17, 09:26:04,VALID,919.972,VALID,0,VALID,73.8175,VALID,537.206,VALID,25.1422,VALID,226,VALID,0,
2015-03-17, 09:27:04,VALID,919.953,VALID,0,VALID,73.9319,VALID,398.607,VALID,25.2007,VALID,228,VALID,0,
2015-03-17, 09:28:04,VALID,919.967,VALID,0,VALID,73.4211,VALID,309.753,VALID,25.2984,VALID,216,VALID,0,
2015-03-17, 09:29:04,VALID,919.945,VALID,0,VALID,74.4655,VALID,531.834,VALID,25.1812,VALID,119,VALID,0,
2015-03-17, 09:30:04,VALID,919.952,VALID,0,VALID,74.6637,VALID,579.645,VALID,25.1422,VALID,131,VALID,0.003125,
2015-03-17, 09:31:04,VALID,919.939,VALID,0,VALID,72.3996,VALID,566.537,VALID,25.2788,VALID,137,VALID,0,
2015-03-17, 09:32:04,VALID,919.907,VALID,0,VALID,73.3373,VALID,364.87,VALID,25.2398,VALID,131,VALID,0.0289063,
2015-03-17, 09:33:04,VALID,919.878,VALID,0,VALID,73.787,VALID,284.182,VALID,25.2984,VALID,129,VALID,0,
2015-03-17, 09:34:04,VALID,919.858,VALID,0,VALID,72.5139,VALID,571.909,VALID,25.396,VALID,128,VALID,0,
2015-03-17, 09:35:04,VALID,919.836,VALID,0,VALID,74.6866,VALID,610.373,VALID,25.396,VALID,128,VALID,0,
2015-03-17, 09:36:04,VALID,919.817,VALID,0,VALID,73.8404,VALID,608.224,VALID,25.4546,VALID,46,VALID,1.23984,
2015-03-17, 09:37:04,VALID,919.833,VALID,0,VALID,74.9763,VALID,572.446,VALID,25.4722,VALID,42,VALID,1.28828,
2015-03-17, 09:38:04,VALID,919.823,VALID,0,VALID,74.9229,VALID,639.919,VALID,25.5718,VALID,26,VALID,1.4832,
2015-03-17, 09:39:04,VALID,919.84,VALID,0,VALID,73.0704,VALID,498.634,VALID,25.7866,VALID,18,VALID,0.948047,
2015-03-17, 09:40:04,VALID,919.813,VALID,0,VALID,71.0121,VALID,657.11,VALID,26.0406,VALID,18,VALID,0.333984,
2015-03-17, 09:41:04,VALID,919.814,VALID,0,VALID,72.087,VALID,639.275,VALID,26.2554,VALID,18,VALID,0.00664063,
2015-03-17, 09:42:04,VALID,919.779,VALID,0,VALID,72.2166,VALID,655.176,VALID,26.2925,VALID,112,VALID,0,
2015-03-17, 09:43:04,VALID,919.744,VALID,0,VALID,73.5126,VALID,612.092,VALID,25.9409,VALID,56,VALID,1.33125,
2015-03-17, 09:44:04,VALID,919.739,VALID,0,VALID,74.092,VALID,615.315,VALID,25.7847,VALID,54,VALID,1.3582,
2015-03-17, 09:45:04,VALID,919.706,VALID,0,VALID,71.7135,VALID,554.611,VALID,25.7066,VALID,52,VALID,0,
2015-03-17, 09:46:04,VALID,919.713,VALID,0,VALID,73.1772,VALID,567.612,VALID,25.5308,VALID,65,VALID,0,
2015-03-17, 09:47:04,VALID,919.711,VALID,0,VALID,75.2279,VALID,608.762,VALID,25.3941,VALID,22,VALID,0.657812,
2015-03-17, 09:48:04,VALID,919.708,VALID,0,VALID,74.5494,VALID,622.514,VALID,25.4722,VALID,38,VALID,1.12109,
2015-03-17, 09:49:04,VALID,919.636,VALID,0,VALID,75.1898,VALID,614.993,VALID,25.4331,VALID,58,VALID,2.30586,
2015-03-17, 09:50:04,VALID,919.666,VALID,0,VALID,75.4642,VALID,611.662,VALID,25.4331,VALID,24,VALID,1.11094,
2015-03-17, 09:51:04,VALID,919.634,VALID,0,VALID,75.8149,VALID,616.82,VALID,25.4527,VALID,50,VALID,1.57617,
2015-03-17, 09:52:04,VALID,919.67,VALID,0,VALID,73.2305,VALID,608.654,VALID,25.4546,VALID,91,VALID,0.0632813,
2015-03-17, 09:53:04,VALID,919.682,VALID,0,VALID,72.2319,VALID,624.233,VALID,25.4917,VALID,98,VALID,0.288281,
2015-03-17, 09:54:04,VALID,919.645,VALID,0,VALID,73.3906,VALID,611.555,VALID,25.4156,VALID,114,VALID,0,
2015-03-17, 09:55:04,VALID,919.662,VALID,0,VALID,74.6637,VALID,640.886,VALID,25.4741,VALID,78,VALID,0.927344,
2015-03-17, 09:56:04,VALID,919.647,VALID,0,VALID,72.7884,VALID,652.275,VALID,25.357,VALID,98,VALID,1.85547,
2015-03-17, 09:57:04,VALID,919.617,VALID,0,VALID,73.1772,VALID,645.829,VALID,25.4156,VALID,60,VALID,1.7418,
2015-03-17, 09:58:04,VALID,919.612,VALID,0,VALID,72.5216,VALID,641.961,VALID,25.4136,VALID,68,VALID,1.4,
2015-03-17, 09:59:04,VALID,919.619,VALID,0,VALID,72.0946,VALID,631.539,VALID,25.4937,VALID,69,VALID,1.3457,
2015-03-17, 10:00:04,VALID,919.564,VALID,0,VALID,70.974,VALID,635.944,VALID,25.6304,VALID,70,VALID,1.60156,
2015-03-17, 10:01:04,VALID,919.568,VALID,0,VALID,71.7058,VALID,638.093,VALID,25.6109,VALID,71,VALID,0.430859,
2015-03-17, 10:02:04,VALID,919.554,VALID,0,VALID,71.7668,VALID,640.134,VALID,25.5894,VALID,55,VALID,0.408984,
2015-03-17, 10:03:04,VALID,919.56,VALID,0,VALID,72.735,VALID,645.721,VALID,25.5894,VALID,110,VALID,0.228906,
2015-03-17, 10:04:04,VALID,919.551,VALID,0,VALID,73.5126,VALID,652.383,VALID,25.4937,VALID,138,VALID,0.0121094,
2015-03-17, 10:05:04,VALID,919.572,VALID,0,VALID,74.2368,VALID,654.639,VALID,25.6675,VALID,138,VALID,0,
2015-03-17, 10:06:04,VALID,919.574,VALID,0,VALID,72.4377,VALID,660.871,VALID,26.0406,VALID,149,VALID,0,
2015-03-17, 10:07:04,VALID,919.612,VALID,0,VALID,69.9601,VALID,664.953,VALID,26.2144,VALID,159,VALID,1.69141,
2015-03-17, 10:08:04,VALID,919.624,VALID,0,VALID,70.852,VALID,674.838,VALID,26.019,VALID,188,VALID,1.44844,
2015-03-17, 10:09:04,VALID,919.627,VALID,0,VALID,70.791,VALID,673.763,VALID,26.0581,VALID,210,VALID,0.0195313,
2015-03-17, 10:10:04,VALID,919.601,VALID,0,VALID,70.387,VALID,679.888,VALID,26.0972,VALID,181,VALID,1.26172,
2015-03-17, 10:11:04,VALID,919.616,VALID,0,VALID,70.7605,VALID,697.723,VALID,26.2144,VALID,184,VALID,0.687109,
2015-03-17, 10:12:04,VALID,919.593,VALID,0,VALID,71.378,VALID,709.649,VALID,26.3511,VALID,175,VALID,0.289844,
2015-03-17, 10:13:04,VALID,919.578,VALID,0,VALID,69.8686,VALID,734.79,VALID,26.4878,VALID,166,VALID,0,
2015-03-17, 10:14:04,VALID,919.58,VALID,0,VALID,69.8762,VALID,737.798,VALID,26.7809,VALID,195,VALID,0.455859,
2015-03-17, 10:15:04,VALID,919.572,VALID,0,VALID,67.7112,VALID,743.708,VALID,26.9372,VALID,169,VALID,0,
2015-03-17, 10:16:04,VALID,919.561,VALID,0,VALID,66.5448,VALID,754.774,VALID,26.9958,VALID,171,VALID,0,
2015-03-17, 10:17:04,VALID,919.555,VALID,0,VALID,66.3847,VALID,761.865,VALID,26.9567,VALID,154,VALID,0.00195313,
2015-03-17, 10:18:04,VALID,919.535,VALID,0,VALID,64.2502,VALID,755.096,VALID,27.0153,VALID,181,VALID,0,
2015-03-17, 10:19:04,VALID,919.5,VALID,0,VALID,67.0784,VALID,760.146,VALID,26.8981,VALID,195,VALID,1.41484,
2015-03-17, 10:20:04,VALID,919.515,VALID,0,VALID,65.4165,VALID,774.114,VALID,26.9372,VALID,187,VALID,1.3668,
2015-03-17, 10:21:04,VALID,919.496,VALID,0,VALID,67.7874,VALID,797.428,VALID,26.9762,VALID,122,VALID,0.000390625,
2015-03-17, 10:22:04,VALID,919.498,VALID,0,VALID,66.0721,VALID,818.487,VALID,27.15,VALID,78,VALID,0.140625,
2015-03-17, 10:23:04,VALID,919.518,VALID,0,VALID,66.804,VALID,839.975,VALID,27.1695,VALID,158,VALID,0.509766,
2015-03-17, 10:24:04,VALID,919.539,VALID,0,VALID,64.5703,VALID,851.364,VALID,27.2107,VALID,176,VALID,0.321484,
2015-03-17, 10:25:04,VALID,919.499,VALID,0,VALID,63.3963,VALID,856.521,VALID,27.3084,VALID,154,VALID,0,
2015-03-17, 10:26:04,VALID,919.505,VALID,0,VALID,62.8551,VALID,347.68,VALID,27.4842,VALID,197,VALID,1.44609,
2015-03-17, 10:27:04,VALID,919.486,VALID,0,VALID,63.0152,VALID,356.06,VALID,27.5038,VALID,191,VALID,0.00820312,
2015-03-17, 10:28:04,VALID,919.451,VALID,0,VALID,62.6111,VALID,857.273,VALID,27.4647,VALID,232,VALID,0.127734,
2015-03-17, 10:29:04,VALID,919.424,VALID,0,VALID,63.9833,VALID,475.32,VALID,27.3454,VALID,213,VALID,0.00195313,
2015-03-17, 10:30:04,VALID,919.429,VALID,0,VALID,66.5372,VALID,899.39,VALID,27.5038,VALID,176,VALID,0.0878906,
2015-03-17, 10:31:04,VALID,919.418,VALID,0,VALID,63.686,VALID,435.566,VALID,27.7383,VALID,56,VALID,0,
2015-03-17, 10:32:04,VALID,919.409,VALID,0,VALID,63.5945,VALID,502.61,VALID,27.8925,VALID,57,VALID,0,
2015-03-17, 10:33:04,VALID,919.436,VALID,0,VALID,62.5273,VALID,869.844,VALID,27.836,VALID,72,VALID,0,
2015-03-17, 10:34:04,VALID,919.408,VALID,0,VALID,64.3493,VALID,849.859,VALID,27.8164,VALID,55,VALID,0,
2015-03-17, 10:35:04,VALID,919.408,VALID,0,VALID,63.6403,VALID,587.166,VALID,27.8729,VALID,308,VALID,0.604688,
2015-03-17, 10:36:04,VALID,919.403,VALID,0,VALID,66.0264,VALID,938.391,VALID,27.5624,VALID,279,VALID,0,
2015-03-17, 10:37:04,VALID,919.404,VALID,0,VALID,66.6134,VALID,350.473,VALID,27.5603,VALID,279,VALID,0,
2015-03-17, 10:38:04,VALID,919.409,VALID,0,VALID,68.7937,VALID,293.744,VALID,27.5212,VALID,345,VALID,0,
2015-03-17, 10:39:04,VALID,919.412,VALID,0,VALID,67.1699,VALID,238.412,VALID,27.6406,VALID,353,VALID,0.00585938,
2015-03-17, 10:40:04,VALID,919.414,VALID,0,VALID,65.2336,VALID,208.328,VALID,27.4821,VALID,353,VALID,0,
2015-03-17, 10:41:04,VALID,919.366,VALID,0,VALID,66.339,VALID,197.799,VALID,27.3238,VALID,353,VALID,0,
2015-03-17, 10:42:04,VALID,919.371,VALID,0,VALID,67.3605,VALID,190.923,VALID,27.2868,VALID,353,VALID,0,
2015-03-17, 10:43:04,VALID,919.38,VALID,0,VALID,68.6946,VALID,188.237,VALID,27.3649,VALID,353,VALID,0,
2015-03-17, 10:44:04,VALID,919.37,VALID,0,VALID,67.6731,VALID,188.667,VALID,27.4626,VALID,15,VALID,0,
2015-03-17, 10:45:04,VALID,919.349,VALID,0,VALID,67.6883,VALID,187.807,VALID,27.5017,VALID,15,VALID,0,
2015-03-17, 10:46:04,VALID,919.4,VALID,0,VALID,67.1775,VALID,187.915,VALID,27.404,VALID,328,VALID,0,
2015-03-17, 10:47:04,VALID,919.388,VALID,0,VALID,67.391,VALID,187.592,VALID,27.1891,VALID,5,VALID,0,
2015-03-17, 10:48:04,VALID,919.344,VALID,0,VALID,68.9614,VALID,189.526,VALID,27.0698,VALID,5,VALID,0,
2015-03-17, 10:49:04,VALID,919.371,VALID,0,VALID,69.983,VALID,187.7,VALID,27.1089,VALID,5,VALID,0,
2015-03-17, 10:50:04,VALID,919.381,VALID,0,VALID,69.5103,VALID,190.708,VALID,27.0328,VALID,5,VALID,0,
2015-03-17, 10:51:04,VALID,919.379,VALID,0,VALID,69.8915,VALID,194.898,VALID,26.896,VALID,292,VALID,0,
2015-03-17, 10:52:04,VALID,919.355,VALID,0,VALID,71.5534,VALID,197.584,VALID,26.6226,VALID,280,VALID,0,
2015-03-17, 10:53:04,VALID,919.366,VALID,0,VALID,71.7516,VALID,210.8,VALID,26.3686,VALID,254,VALID,0,
2015-03-17, 10:54:04,VALID,919.347,VALID,0,VALID,71.8583,VALID,221.221,VALID,26.1733,VALID,236,VALID,0.000390625,
2015-03-17, 10:55:04,VALID,919.389,VALID,0,VALID,72.857,VALID,234.007,VALID,26.0757,VALID,258,VALID,0,
2015-03-17, 10:56:04,VALID,919.364,VALID,0,VALID,72.2166,VALID,241.635,VALID,25.8979,VALID,230,VALID,0.00859375,
2015-03-17, 10:57:04,VALID,919.368,VALID,0,VALID,72.5216,VALID,256.247,VALID,25.8413,VALID,243,VALID,0,
2015-03-17, 10:58:04,VALID,919.351,VALID,0,VALID,72.2242,VALID,393.127,VALID,25.7827,VALID,221,VALID,0,
2015-03-17, 10:59:04,VALID,919.337,VALID,0,VALID,72.4911,VALID,555.793,VALID,25.8022,VALID,250,VALID,0,
2015-03-17, 11:00:04,VALID,919.31,VALID,0,VALID,73.2534,VALID,351.87,VALID,25.8218,VALID,233,VALID,0,
2015-03-17, 11:01:04,VALID,919.261,VALID,0,VALID,72.613,VALID,920.986,VALID,25.8999,VALID,230,VALID,0,
2015-03-17, 11:02:04,VALID,919.278,VALID,0,VALID,73.1314,VALID,886.927,VALID,25.9585,VALID,242,VALID,0,